Time,TemperatureF,DewpointF,PressureIn,WindDirection,WindDirectionDegrees,WindSpeedMPH,WindSpeedGustMPH,Humidity,HourlyPrecipIn,Conditions,Clouds,dailyrainin,SoftwareType,DateUTC
2013-07-25 00:01:00,66.1,57.6,30.00,SE,139,0.0,0.0,74,0.00,,BKN029,0.00,VWS V14.00,2013-07-25 04:01:00,
2013-07-25 00:03:00,66.1,57.6,30.00,SE,139,0.0,0.0,74,0.00,,SCT033,0.00,VWS V14.00,2013-07-25 04:03:00,
2013-07-25 00:08:00,66.1,57.2,30.00,SE,139,0.0,0.0,73,0.00,,SCT033,0.00,VWS V14.00,2013-07-25 04:08:00,
2013-07-25 00:13:00,66.1,57.6,30.00,South,188,0.0,2.7,74,0.00,,SCT033,0.00,VWS V14.00,2013-07-25 04:13:00,
2013-07-25 00:19:00,66.1,57.2,30.00,South,188,0.0,0.0,73,0.00,,SCT033,0.00,VWS V14.00,2013-07-25 04:19:00,
2013-07-25 00:24:00,65.7,56.8,30.00,South,188,0.0,0.0,73,0.00,,SCT033,0.00,VWS V14.00,2013-07-25 04:24:00,
2013-07-25 00:29:00,65.2,57.0,30.00,South,188,0.0,0.0,75,0.00,,SCT033,0.00,VWS V14.00,2013-07-25 04:29:00,
2013-07-25 00:34:00,64.8,57.0,30.00,NNW,338,3.9,4.8,76,0.00,,SCT033,0.00,VWS V14.00,2013-07-25 04:34:00,
2013-07-25 00:39:00,64.2,56.9,30.00,NNW,327,3.4,3.8,77,0.00,,SCT033,0.00,VWS V14.00,2013-07-25 04:39:00,
2013-07-25 00:44:00,64.2,57.2,30.00,NNW,332,0.0,0.0,78,0.00,,SCT033,0.00,VWS V14.00,2013-07-25 04:44:00,
2013-07-25 00:49:00,64.0,57.0,30.00,NNW,332,0.0,0.0,78,0.00,,SCT033,0.00,VWS V14.00,2013-07-25 04:49:00,
2013-07-25 00:54:00,64.4,57.4,30.00,NNW,332,0.0,0.0,78,0.00,,SCT033,0.00,VWS V14.00,2013-07-25 04:54:00,
2013-07-25 00:59:00,64.4,57.8,30.00,NNW,332,0.0,0.0,79,0.00,,SCT033,0.00,VWS V14.00,2013-07-25 04:59:00,
2013-07-25 01:04:00,64.0,57.4,30.00,NNW,332,0.0,0.0,79,0.00,,CLR,0.00,VWS V14.00,2013-07-25 05:04:00,
2013-07-25 01:09:00,64.2,57.2,30.00,NNW,332,0.0,0.0,78,0.00,,CLR,0.00,VWS V14.00,2013-07-25 05:09:00,
2013-07-25 01:14:00,64.2,57.2,30.00,NNW,332,0.0,0.0,78,0.00,,CLR,0.00,VWS V14.00,2013-07-25 05:14:00,
2013-07-25 01:19:00,64.4,57.4,30.00,NNW,332,0.0,0.0,78,0.00,,CLR,0.00,VWS V14.00,2013-07-25 05:19:00,
2013-07-25 01:24:00,64.4,57.4,30.00,NNW,332,0.0,0.0,78,0.00,,CLR,0.00,VWS V14.00,2013-07-25 05:24:00,
2013-07-25 01:30:00,64.4,57.8,30.00,NNW,332,0.0,0.0,79,0.00,,CLR,0.00,VWS V14.00,2013-07-25 05:30:00,
2013-07-25 01:35:00,64.0,57.8,30.00,NNW,332,0.0,0.0,80,0.00,,CLR,0.00,VWS V14.00,2013-07-25 05:35:00,
2013-07-25 01:40:00,63.8,57.9,30.00,NNW,332,3.0,3.2,81,0.00,,CLR,0.00,VWS V14.00,2013-07-25 05:40:00,
2013-07-25 01:45:00,63.7,58.1,30.00,NNW,332,0.0,0.0,82,0.00,,CLR,0.00,VWS V14.00,2013-07-25 05:45:00,
2013-07-25 01:50:00,63.8,58.2,30.00,NNW,332,0.0,0.0,82,0.00,,CLR,0.00,VWS V14.00,2013-07-25 05:50:00,
2013-07-25 01:55:00,63.8,58.2,30.00,NNW,332,0.0,0.0,82,0.00,,CLR,0.00,VWS V14.00,2013-07-25 05:55:00,
2013-07-25 02:00:00,63.5,58.2,30.00,NNW,332,3.0,3.8,83,0.00,,CLR,0.00,VWS V14.00,2013-07-25 06:00:00,
2013-07-25 02:05:00,63.1,58.2,30.00,NNW,332,0.0,0.0,84,0.00,,,0.00,VWS V14.00,2013-07-25 06:05:00,
2013-07-25 02:10:00,62.7,58.5,30.00,NNW,332,2.5,3.2,86,0.00,,,0.00,VWS V14.00,2013-07-25 06:10:00,
2013-07-25 02:15:00,63.1,58.9,30.00,NNW,332,0.0,0.0,86,0.00,,,0.00,VWS V14.00,2013-07-25 06:15:00,
2013-07-25 02:20:00,63.1,58.9,29.97,NNW,332,0.0,0.0,86,0.00,,,0.00,VWS V14.00,2013-07-25 06:20:00,
2013-07-25 02:25:00,63.3,58.7,29.97,NNW,332,0.0,0.0,85,0.00,,,0.00,VWS V14.00,2013-07-25 06:25:00,
2013-07-25 02:30:00,63.5,58.6,29.97,NNW,332,0.0,0.0,84,0.00,,,0.00,VWS V14.00,2013-07-25 06:30:00,
2013-07-25 02:35:00,63.5,58.2,29.97,NNW,332,0.0,0.0,83,0.00,,,0.00,VWS V14.00,2013-07-25 06:35:00,
2013-07-25 02:40:00,63.5,58.2,29.97,NNW,332,0.0,0.0,83,0.00,,,0.00,VWS V14.00,2013-07-25 06:40:00,
2013-07-25 02:46:00,63.5,58.2,29.97,NNW,332,0.0,0.0,83,0.00,,OVC060,0.00,VWS V14.00,2013-07-25 06:46:00,
2013-07-25 02:51:00,63.5,57.9,29.97,NNW,332,0.0,0.0,82,0.00,,OVC060,0.00,VWS V14.00,2013-07-25 06:51:00,
2013-07-25 02:56:00,63.5,57.9,29.97,NNW,332,0.0,0.0,82,0.00,,OVC060,0.00,VWS V14.00,2013-07-25 06:56:00,
2013-07-25 03:01:00,63.7,58.1,29.97,NNW,332,0.0,0.0,82,0.00,,OVC060,0.00,VWS V14.00,2013-07-25 07:01:00,
2013-07-25 03:06:00,63.7,58.1,29.97,NNW,332,0.0,0.0,82,0.00,,OVC060,0.00,VWS V14.00,2013-07-25 07:06:00,
2013-07-25 03:11:00,63.7,58.4,29.97,NNW,332,0.0,0.0,83,0.00,,OVC060,0.00,VWS V14.00,2013-07-25 07:11:00,
2013-07-25 03:16:00,63.7,58.4,29.97,NNW,332,0.0,0.0,83,0.00,,,0.00,VWS V14.00,2013-07-25 07:16:00,
2013-07-25 03:21:00,63.5,57.9,29.97,NNW,332,0.0,0.0,82,0.00,,,0.00,VWS V14.00,2013-07-25 07:21:00,
2013-07-25 03:26:00,63.5,58.2,29.97,NNW,332,0.0,0.0,83,0.00,,,0.00,VWS V14.00,2013-07-25 07:26:00,
2013-07-25 03:31:00,63.5,58.2,29.97,NNW,332,0.0,0.0,83,0.00,,,0.00,VWS V14.00,2013-07-25 07:31:00,
2013-07-25 03:36:00,63.7,58.1,29.97,NNW,332,0.0,0.0,82,0.00,,,0.00,VWS V14.00,2013-07-25 07:36:00,
2013-07-25 03:41:00,63.7,58.1,29.97,NNW,332,0.0,0.0,82,0.00,,,0.00,VWS V14.00,2013-07-25 07:41:00,
2013-07-25 03:46:00,63.5,57.9,30.00,NNW,332,0.0,0.0,82,0.00,,,0.00,VWS V14.00,2013-07-25 07:46:00,
2013-07-25 03:51:00,63.5,57.9,30.00,NNW,332,0.0,3.2,82,0.00,,,0.00,VWS V14.00,2013-07-25 07:51:00,
2013-07-25 03:56:00,63.5,57.9,30.00,NNW,332,0.0,0.0,82,0.00,,,0.00,VWS V14.00,2013-07-25 07:56:00,
2013-07-25 04:02:00,63.5,57.9,30.00,NNW,332,0.0,0.0,82,0.00,,,0.00,VWS V14.00,2013-07-25 08:02:00,
2013-07-25 04:07:00,63.5,57.9,30.00,NNW,332,0.0,0.0,82,0.00,,,0.00,VWS V14.00,2013-07-25 08:07:00,
2013-07-25 04:12:00,63.5,57.9,30.00,NNW,332,0.0,0.0,82,0.00,,,0.00,VWS V14.00,2013-07-25 08:12:00,
2013-07-25 04:17:00,63.5,57.9,30.00,NNW,332,0.0,0.0,82,0.00,,,0.00,VWS V14.00,2013-07-25 08:17:00,
2013-07-25 04:22:00,63.3,58.0,30.00,NNW,332,0.0,0.0,83,0.00,,,0.00,VWS V14.00,2013-07-25 08:22:00,
2013-07-25 04:27:00,63.3,58.0,30.00,NNW,332,0.0,0.0,83,0.00,,,0.00,VWS V14.00,2013-07-25 08:27:00,
2013-07-25 04:32:00,63.3,58.0,30.00,NNW,332,0.0,0.0,83,0.00,,,0.00,VWS V14.00,2013-07-25 08:32:00,
2013-07-25 04:37:00,63.1,57.9,30.00,NNW,332,0.0,0.0,83,0.00,,,0.00,VWS V14.00,2013-07-25 08:37:00,
2013-07-25 04:42:00,63.1,57.9,30.00,NNW,332,0.0,0.0,83,0.00,,,0.00,VWS V14.00,2013-07-25 08:42:00,
2013-07-25 04:47:00,63.1,57.9,30.00,NNW,332,0.0,0.0,83,0.00,,,0.00,VWS V14.00,2013-07-25 08:47:00,
2013-07-25 04:52:00,62.7,57.8,30.00,NNW,332,0.0,0.0,84,0.00,,,0.00,VWS V14.00,2013-07-25 08:52:00,
2013-07-25 04:57:00,62.7,57.8,30.00,NNW,332,0.0,0.0,84,0.00,,,0.00,VWS V14.00,2013-07-25 08:57:00,
2013-07-25 05:02:00,62.7,57.5,30.00,NNW,332,0.0,0.0,83,0.00,,OVC004,0.00,VWS V14.00,2013-07-25 09:02:00,
2013-07-25 05:07:00,62.9,58.0,30.00,NNW,332,0.0,0.0,84,0.00,,OVC004,0.00,VWS V14.00,2013-07-25 09:07:00,
2013-07-25 05:12:00,62.7,58.2,30.00,NNW,332,0.0,0.0,85,0.00,,OVC004,0.00,VWS V14.00,2013-07-25 09:12:00,
2013-07-25 05:17:00,62.7,58.5,30.00,NNW,332,0.0,0.0,86,0.00,,OVC004,0.00,VWS V14.00,2013-07-25 09:17:00,
2013-07-25 05:23:00,62.5,58.6,30.00,NNW,332,0.0,0.0,87,0.00,,OVC004,0.00,VWS V14.00,2013-07-25 09:23:00,
2013-07-25 05:28:00,62.4,58.5,30.00,NNW,332,0.0,0.0,87,0.00,,OVC004,0.00,VWS V14.00,2013-07-25 09:28:00,
2013-07-25 05:33:00,62.5,58.3,30.00,NNW,332,0.0,0.0,86,0.00,,OVC004,0.00,VWS V14.00,2013-07-25 09:33:00,
2013-07-25 05:38:00,62.5,58.0,30.00,NNW,332,0.0,0.0,85,0.00,,OVC004,0.00,VWS V14.00,2013-07-25 09:38:00,
2013-07-25 05:43:00,62.2,57.3,30.00,NNW,332,0.0,0.0,84,0.00,,OVC004,0.00,VWS V14.00,2013-07-25 09:43:00,
2013-07-25 05:48:00,62.2,57.6,30.00,NNW,332,0.0,0.0,85,0.00,,OVC004,0.00,VWS V14.00,2013-07-25 09:48:00,
2013-07-25 05:53:00,62.0,57.1,30.00,NNW,332,0.0,0.0,84,0.00,,OVC004,0.00,VWS V14.00,2013-07-25 09:53:00,
2013-07-25 05:58:00,61.8,56.9,30.00,NNW,332,0.0,0.0,84,0.00,,OVC004,0.00,VWS V14.00,2013-07-25 09:58:00,
2013-07-25 06:03:00,61.6,56.8,30.00,NNW,332,0.0,0.0,84,0.00,,OVC004,0.00,VWS V14.00,2013-07-25 10:03:00,
2013-07-25 06:08:00,61.6,56.8,30.00,NNW,332,0.0,0.0,84,0.00,,OVC004,0.00,VWS V14.00,2013-07-25 10:08:00,
2013-07-25 06:13:00,61.8,56.9,30.00,NNW,332,0.0,0.0,84,0.00,,OVC004,0.00,VWS V14.00,2013-07-25 10:13:00,
2013-07-25 06:18:00,61.2,56.4,30.00,NNW,332,0.0,0.0,84,0.00,,OVC004,0.00,VWS V14.00,2013-07-25 10:18:00,
2013-07-25 06:23:00,61.1,56.5,30.00,NNW,332,0.0,0.0,85,0.00,,OVC004,0.00,VWS V14.00,2013-07-25 10:23:00,
2013-07-25 06:28:00,61.1,56.9,30.00,NNW,332,0.0,0.0,86,0.00,,OVC004,0.00,VWS V14.00,2013-07-25 10:28:00,
2013-07-25 06:33:00,61.2,56.7,30.00,NNW,332,0.0,0.0,85,0.00,,OVC004,0.00,VWS V14.00,2013-07-25 10:33:00,
2013-07-25 06:38:00,60.9,56.7,30.00,NNW,332,0.0,0.0,86,0.00,,OVC004,0.00,VWS V14.00,2013-07-25 10:38:00,
2013-07-25 06:43:00,61.1,56.9,30.00,NNW,332,0.0,0.0,86,0.00,,OVC004,0.00,VWS V14.00,2013-07-25 10:43:00,
2013-07-25 06:48:00,61.1,56.9,30.00,NNW,332,0.0,0.0,86,0.00,,OVC006,0.00,VWS V14.00,2013-07-25 10:48:00,
2013-07-25 06:53:00,60.9,57.0,30.00,NNW,332,0.0,0.0,87,0.00,,OVC006,0.00,VWS V14.00,2013-07-25 10:53:00,
2013-07-25 06:58:00,60.5,57.0,30.00,NNW,332,0.0,0.0,88,0.00,,OVC006,0.00,VWS V14.00,2013-07-25 10:58:00,
2013-07-25 07:03:00,60.9,57.3,30.00,NNW,332,0.0,0.0,88,0.00,,,0.00,VWS V14.00,2013-07-25 11:03:00,
2013-07-25 07:09:00,61.2,57.7,30.00,NNW,332,0.0,0.0,88,0.00,,,0.00,VWS V14.00,2013-07-25 11:09:00,
2013-07-25 07:14:00,60.9,57.6,30.00,NNW,332,0.0,0.0,89,0.00,,,0.00,VWS V14.00,2013-07-25 11:14:00,
2013-07-25 07:18:00,61.1,58.1,30.00,NNW,332,0.0,0.0,90,0.00,,,0.00,VWS V14.00,2013-07-25 11:18:00,
2013-07-25 07:24:00,61.2,58.0,30.00,NNW,332,0.0,0.0,89,0.00,,,0.00,VWS V14.00,2013-07-25 11:24:00,
2013-07-25 07:29:00,61.2,58.0,30.00,NNW,332,0.0,0.0,89,0.00,,,0.00,VWS V14.00,2013-07-25 11:29:00,
2013-07-25 07:34:00,60.9,57.9,30.00,NNW,332,0.0,0.0,90,0.00,,,0.00,VWS V14.00,2013-07-25 11:34:00,
2013-07-25 07:39:00,60.9,58.2,30.00,NNW,332,0.0,0.0,91,0.00,,,0.00,VWS V14.00,2013-07-25 11:39:00,
2013-07-25 07:44:00,60.9,58.5,30.00,NW,326,0.0,0.0,92,0.00,,,0.00,VWS V14.00,2013-07-25 11:44:00,
2013-07-25 07:49:00,61.1,58.7,30.03,NW,326,0.0,0.0,92,0.00,,,0.00,VWS V14.00,2013-07-25 11:49:00,
2013-07-25 07:54:00,60.9,58.8,30.03,NNW,334,3.0,4.3,93,0.00,,,0.00,VWS V14.00,2013-07-25 11:54:00,
2013-07-25 07:59:00,61.2,59.2,30.03,NNW,334,0.0,0.0,93,0.00,,,0.00,VWS V14.00,2013-07-25 11:59:00,
2013-07-25 08:04:00,61.4,59.1,30.03,SW,227,2.5,2.7,92,0.00,,OVC009,0.00,VWS V14.00,2013-07-25 12:04:00,
2013-07-25 08:09:00,61.8,59.8,30.03,WSW,255,0.0,0.0,93,0.00,,OVC009,0.00,VWS V14.00,2013-07-25 12:09:00,
2013-07-25 08:14:00,61.8,59.5,30.03,NW,322,0.0,3.2,92,0.00,,OVC009,0.00,VWS V14.00,2013-07-25 12:14:00,
2013-07-25 08:19:00,62.0,59.7,30.03,NW,325,2.5,3.2,92,0.00,,OVC009,0.00,VWS V14.00,2013-07-25 12:19:00,
2013-07-25 08:24:00,62.4,60.3,30.03,NW,325,0.0,0.0,93,0.00,,OVC009,0.00,VWS V14.00,2013-07-25 12:24:00,
2013-07-25 08:29:00,62.7,60.4,30.03,SSW,194,0.0,2.7,92,0.00,,OVC009,0.00,VWS V14.00,2013-07-25 12:29:00,
2013-07-25 08:34:00,62.9,60.3,30.03,NW,311,3.0,3.2,91,0.00,,OVC009,0.00,VWS V14.00,2013-07-25 12:34:00,
2013-07-25 08:39:00,63.1,59.8,30.03,NNW,330,0.0,0.0,89,0.00,,OVC009,0.00,VWS V14.00,2013-07-25 12:39:00,
2013-07-25 08:44:00,63.1,59.2,30.03,NNW,330,0.0,2.7,87,0.00,,OVC009,0.00,VWS V14.00,2013-07-25 12:44:00,
2013-07-25 08:49:00,63.5,59.5,30.03,East,99,0.0,3.8,87,0.00,,OVC009,0.00,VWS V14.00,2013-07-25 12:49:00,
2013-07-25 08:54:00,63.5,59.2,30.03,NW,305,3.9,4.8,86,0.00,,OVC009,0.00,VWS V14.00,2013-07-25 12:54:00,
2013-07-25 09:00:00,63.5,59.5,30.03,NNW,331,0.0,2.7,87,0.00,,OVC009,0.00,VWS V14.00,2013-07-25 13:00:00,
2013-07-25 09:05:00,63.5,59.2,30.03,NW,320,2.5,3.2,86,0.00,,SCT009,0.00,VWS V14.00,2013-07-25 13:05:00,
2013-07-25 09:10:00,63.8,58.9,30.03,West,277,3.0,3.8,84,0.00,,SCT009,0.00,VWS V14.00,2013-07-25 13:10:00,
2013-07-25 09:15:00,63.8,58.9,30.03,NW,318,0.0,2.7,84,0.00,,SCT009,0.00,VWS V14.00,2013-07-25 13:15:00,
2013-07-25 09:20:00,64.0,58.8,30.03,NW,318,2.5,3.8,83,0.00,,SCT009,0.00,VWS V14.00,2013-07-25 13:20:00,
2013-07-25 09:25:00,64.2,58.6,30.03,SSE,150,0.0,0.0,82,0.00,,SCT009,0.00,VWS V14.00,2013-07-25 13:25:00,
2013-07-25 09:30:00,64.4,58.5,30.03,ESE,120,3.9,4.3,81,0.00,,SCT009,0.00,VWS V14.00,2013-07-25 13:30:00,
2013-07-25 09:35:00,64.6,58.6,30.03,WSW,240,3.9,4.3,81,0.00,,SCT009,0.00,VWS V14.00,2013-07-25 13:35:00,
2013-07-25 09:40:00,64.8,57.0,30.03,South,182,2.5,2.7,76,0.00,,SCT009,0.00,VWS V14.00,2013-07-25 13:40:00,
2013-07-25 09:45:00,65.0,55.7,30.03,SSW,204,3.4,4.3,72,0.00,,SCT009,0.00,VWS V14.00,2013-07-25 13:45:00,
2013-07-25 09:50:00,65.2,56.3,30.03,South,171,3.9,4.3,73,0.00,,BKN011,0.00,VWS V14.00,2013-07-25 13:50:00,
2013-07-25 09:55:00,65.3,56.5,30.03,SSW,211,5.4,5.9,73,0.00,,BKN011,0.00,VWS V14.00,2013-07-25 13:55:00,
2013-07-25 10:00:00,65.7,56.4,30.03,SSE,162,4.9,5.9,72,0.00,,BKN011,0.00,VWS V14.00,2013-07-25 14:00:00,
2013-07-25 10:05:00,66.3,56.6,30.03,ESE,119,5.4,5.9,71,0.00,,SCT013,0.00,VWS V14.00,2013-07-25 14:05:00,
2013-07-25 10:10:00,66.6,57.3,30.03,NW,305,0.0,2.7,72,0.00,,SCT013,0.00,VWS V14.00,2013-07-25 14:10:00,
2013-07-25 10:16:00,66.6,56.9,30.03,SW,234,0.0,2.7,71,0.00,,SCT013,0.00,VWS V14.00,2013-07-25 14:16:00,
2013-07-25 10:21:00,67.0,56.9,30.03,SE,142,5.4,5.9,70,0.00,,SCT013,0.00,VWS V14.00,2013-07-25 14:21:00,
2013-07-25 10:26:00,67.2,56.3,30.03,South,188,2.5,3.2,68,0.00,,SCT013,0.00,VWS V14.00,2013-07-25 14:26:00,
2013-07-25 10:31:00,67.4,57.3,30.03,NW,326,3.4,4.8,70,0.00,,SCT013,0.00,VWS V14.00,2013-07-25 14:31:00,
2013-07-25 10:36:00,67.4,57.3,30.03,NW,317,0.0,3.8,70,0.00,,SCT013,0.00,VWS V14.00,2013-07-25 14:36:00,
2013-07-25 10:41:00,67.6,56.6,30.03,WNW,287,0.0,0.0,68,0.00,,SCT013,0.00,VWS V14.00,2013-07-25 14:41:00,
2013-07-25 10:46:00,67.4,56.9,30.03,WSW,238,0.0,0.0,69,0.00,,BKN021,0.00,VWS V14.00,2013-07-25 14:46:00,
2013-07-25 10:51:00,67.6,57.4,30.03,WSW,258,2.5,2.7,70,0.00,,BKN021,0.00,VWS V14.00,2013-07-25 14:51:00,
2013-07-25 10:56:00,67.9,57.4,30.03,SSE,156,3.4,7.5,69,0.00,,BKN021,0.00,VWS V14.00,2013-07-25 14:56:00,
2013-07-25 11:01:00,68.3,56.5,30.03,SSE,147,3.4,4.3,66,0.00,,SCT026,0.00,VWS V14.00,2013-07-25 15:01:00,
2013-07-25 11:07:00,68.5,55.0,30.03,SW,226,0.0,3.2,62,0.00,,SCT026,0.00,VWS V14.00,2013-07-25 15:07:00,
2013-07-25 11:12:00,69.0,57.6,30.03,WNW,301,5.4,5.9,67,0.00,,SCT026,0.00,VWS V14.00,2013-07-25 15:12:00,
2013-07-25 11:17:00,69.4,56.7,30.03,West,259,3.0,4.8,64,0.00,,BKN026,0.00,VWS V14.00,2013-07-25 15:17:00,
2013-07-25 11:22:00,69.6,56.0,30.03,SSW,202,3.9,7.0,62,0.00,,BKN026,0.00,VWS V14.00,2013-07-25 15:22:00,
2013-07-25 11:27:00,69.4,55.4,30.03,South,190,0.0,0.0,61,0.00,,BKN026,0.00,VWS V14.00,2013-07-25 15:27:00,
2013-07-25 11:32:00,70.0,56.4,30.03,SSW,194,3.4,5.9,62,0.00,,BKN026,0.00,VWS V14.00,2013-07-25 15:32:00,
2013-07-25 11:37:00,69.8,55.3,30.03,SW,224,4.4,7.0,60,0.00,,BKN026,0.00,VWS V14.00,2013-07-25 15:37:00,
2013-07-25 11:42:00,70.2,54.7,30.03,NW,309,4.4,4.8,58,0.00,,BKN026,0.00,VWS V14.00,2013-07-25 15:42:00,
2013-07-25 11:47:00,70.3,54.4,30.03,South,178,3.4,3.8,57,0.00,,BKN026,0.00,VWS V14.00,2013-07-25 15:47:00,
2013-07-25 11:52:00,70.9,55.9,30.03,WNW,295,0.0,4.8,59,0.00,,BKN026,0.00,VWS V14.00,2013-07-25 15:52:00,
2013-07-25 11:57:00,71.1,54.1,30.03,West,277,3.0,3.2,55,0.00,,BKN026,0.00,VWS V14.00,2013-07-25 15:57:00,
2013-07-25 12:03:00,70.9,55.4,30.03,East,86,2.5,2.7,58,0.00,,FEW025,0.00,VWS V14.00,2013-07-25 16:03:00,
2013-07-25 12:08:00,70.7,54.8,30.03,South,174,4.4,6.4,57,0.00,,FEW025,0.00,VWS V14.00,2013-07-25 16:08:00,
2013-07-25 12:13:00,70.7,54.3,30.03,SSE,162,0.0,2.7,56,0.00,,FEW025,0.00,VWS V14.00,2013-07-25 16:13:00,
2013-07-25 12:18:00,70.7,56.6,30.03,NW,317,3.0,3.8,61,0.00,,FEW025,0.00,VWS V14.00,2013-07-25 16:18:00,
2013-07-25 12:23:00,71.4,54.5,30.03,SW,225,3.0,3.2,55,0.00,,FEW025,0.00,VWS V14.00,2013-07-25 16:23:00,
2013-07-25 12:28:00,72.2,55.2,30.03,SSW,207,4.4,4.8,55,0.00,,FEW025,0.00,VWS V14.00,2013-07-25 16:28:00,
2013-07-25 12:33:00,72.6,56.0,30.03,South,176,2.5,4.8,56,0.00,,FEW025,0.00,VWS V14.00,2013-07-25 16:33:00,
2013-07-25 12:38:00,72.9,56.3,30.03,NW,316,3.9,6.4,56,0.00,,FEW025,0.00,VWS V14.00,2013-07-25 16:38:00,
2013-07-25 12:43:00,72.4,54.8,30.03,WSW,246,3.4,3.8,54,0.00,,FEW025,0.00,VWS V14.00,2013-07-25 16:43:00,
2013-07-25 12:48:00,72.4,55.3,30.03,SSE,162,3.0,4.8,55,0.00,,FEW025,0.00,VWS V14.00,2013-07-25 16:48:00,
2013-07-25 12:53:00,72.8,53.6,30.03,WNW,297,3.9,4.3,51,0.00,,FEW025,0.00,VWS V14.00,2013-07-25 16:53:00,
2013-07-25 12:58:00,73.9,55.2,30.03,South,185,5.4,8.1,52,0.00,,FEW025,0.00,VWS V14.00,2013-07-25 16:58:00,
2013-07-25 13:03:00,74.1,54.8,30.03,WSW,250,0.0,4.3,51,0.00,,FEW029,0.00,VWS V14.00,2013-07-25 17:03:00,
2013-07-25 13:08:00,74.6,55.8,30.03,WSW,248,3.4,4.3,52,0.00,,FEW029,0.00,VWS V14.00,2013-07-25 17:08:00,
2013-07-25 13:13:00,73.9,54.1,30.03,West,273,6.4,7.0,50,0.00,,FEW029,0.00,VWS V14.00,2013-07-25 17:13:00,
2013-07-25 13:19:00,72.9,51.5,30.03,South,171,3.9,7.5,47,0.00,,FEW029,0.00,VWS V14.00,2013-07-25 17:19:00,
2013-07-25 13:24:00,74.1,52.0,30.03,SW,218,3.0,3.2,46,0.00,,FEW029,0.00,VWS V14.00,2013-07-25 17:24:00,
2013-07-25 13:29:00,74.6,52.5,30.03,SW,218,2.5,3.8,46,0.00,,FEW029,0.00,VWS V14.00,2013-07-25 17:29:00,
2013-07-25 13:34:00,74.8,52.7,30.03,SSW,202,0.0,4.3,46,0.00,,FEW029,0.00,VWS V14.00,2013-07-25 17:34:00,
2013-07-25 13:39:00,75.2,52.4,30.03,SE,137,3.9,7.0,45,0.00,,FEW029,0.00,VWS V14.00,2013-07-25 17:39:00,
2013-07-25 13:44:00,75.2,51.8,30.03,SE,140,5.4,5.9,44,0.00,,FEW029,0.00,VWS V14.00,2013-07-25 17:44:00,
2013-07-25 13:49:00,75.5,52.7,30.03,WSW,257,3.4,3.8,45,0.00,,FEW029,0.00,VWS V14.00,2013-07-25 17:49:00,
2013-07-25 13:54:00,76.3,55.2,30.03,WNW,299,5.9,9.7,48,0.00,,FEW029,0.00,VWS V14.00,2013-07-25 17:54:00,
2013-07-25 13:59:00,76.3,52.8,30.03,WNW,298,5.9,6.4,44,0.00,,FEW029,0.00,VWS V14.00,2013-07-25 17:59:00,
2013-07-25 14:04:00,76.6,51.8,30.03,WSW,239,4.4,7.5,42,0.00,,FEW031,0.00,VWS V14.00,2013-07-25 18:04:00,
2013-07-25 14:09:00,76.6,51.8,30.03,SE,137,3.0,3.8,42,0.00,,FEW031,0.00,VWS V14.00,2013-07-25 18:09:00,
2013-07-25 14:14:00,77.2,53.6,30.03,SSW,193,3.9,9.1,44,0.00,,FEW031,0.00,VWS V14.00,2013-07-25 18:14:00,
2013-07-25 14:19:00,77.0,51.5,30.03,SSE,167,3.9,4.3,41,0.00,,FEW031,0.00,VWS V14.00,2013-07-25 18:19:00,
2013-07-25 14:24:00,77.6,53.3,30.03,SE,143,3.4,5.9,43,0.00,,FEW031,0.00,VWS V14.00,2013-07-25 18:24:00,
2013-07-25 14:29:00,77.4,52.5,30.03,SSW,193,3.0,3.8,42,0.00,,FEW031,0.00,VWS V14.00,2013-07-25 18:29:00,
2013-07-25 14:35:00,77.8,53.5,30.03,SSW,196,0.0,4.8,43,0.00,,FEW031,0.00,VWS V14.00,2013-07-25 18:35:00,
2013-07-25 14:40:00,78.7,54.3,30.03,South,187,3.4,7.5,43,0.00,,FEW031,0.00,VWS V14.00,2013-07-25 18:40:00,
2013-07-25 14:45:00,78.3,52.7,30.03,West,280,5.9,7.0,41,0.00,,FEW031,0.00,VWS V14.00,2013-07-25 18:45:00,
2013-07-25 14:50:00,78.3,52.7,30.03,SE,127,8.4,9.1,41,0.00,,FEW031,0.00,VWS V14.00,2013-07-25 18:50:00,
2013-07-25 14:55:00,77.9,52.4,30.03,SE,146,6.9,7.5,41,0.00,,FEW031,0.00,VWS V14.00,2013-07-25 18:55:00,
2013-07-25 15:00:00,78.5,53.5,30.03,WSW,253,0.0,4.3,42,0.00,,FEW031,0.00,VWS V14.00,2013-07-25 19:00:00,
2013-07-25 15:05:00,78.7,53.7,30.03,South,180,6.4,8.6,42,0.00,,SCT036,0.00,VWS V14.00,2013-07-25 19:05:00,
2013-07-25 15:10:00,79.2,54.2,30.03,SW,219,2.5,7.0,42,0.00,,SCT036,0.00,VWS V14.00,2013-07-25 19:10:00,
2013-07-25 15:15:00,79.4,55.6,30.03,SSE,166,3.9,5.9,44,0.00,,SCT036,0.00,VWS V14.00,2013-07-25 19:15:00,
2013-07-25 15:20:00,79.4,55.6,30.03,NW,318,6.4,7.5,44,0.00,,SCT036,0.00,VWS V14.00,2013-07-25 19:20:00,
2013-07-25 15:25:00,80.5,55.3,30.03,WSW,253,3.4,4.8,42,0.00,,SCT036,0.00,VWS V14.00,2013-07-25 19:25:00,
2013-07-25 15:30:00,79.6,53.9,30.03,South,169,3.4,5.9,41,0.00,,SCT036,0.00,VWS V14.00,2013-07-25 19:30:00,
2013-07-25 15:35:00,78.5,52.9,30.03,West,271,4.4,6.4,41,0.00,,SCT036,0.00,VWS V14.00,2013-07-25 19:35:00,
2013-07-25 15:40:00,78.5,53.5,30.03,WNW,299,5.4,5.9,42,0.00,,SCT036,0.00,VWS V14.00,2013-07-25 19:40:00,
2013-07-25 15:45:00,76.8,52.7,30.03,WNW,299,4.4,4.8,43,0.00,,SCT036,0.00,VWS V14.00,2013-07-25 19:45:00,
2013-07-25 15:50:00,77.8,54.1,30.03,WNW,291,5.9,6.4,44,0.00,,SCT036,0.00,VWS V14.00,2013-07-25 19:50:00,
2013-07-25 15:55:00,78.7,55.6,30.03,WNW,288,2.5,3.2,45,0.00,,SCT036,0.00,VWS V14.00,2013-07-25 19:55:00,
2013-07-25 16:00:00,77.6,55.2,30.03,West,276,3.4,3.8,46,0.00,,SCT036,0.00,VWS V14.00,2013-07-25 20:00:00,
2013-07-25 16:06:00,78.5,55.4,30.03,SW,232,3.0,4.8,45,0.00,,FEW038,0.00,VWS V14.00,2013-07-25 20:06:00,
2013-07-25 16:11:00,79.2,55.5,30.03,WSW,250,0.0,4.8,44,0.00,,FEW038,0.00,VWS V14.00,2013-07-25 20:11:00,
2013-07-25 16:16:00,79.1,55.3,30.03,SSW,195,3.9,4.3,44,0.00,,FEW038,0.00,VWS V14.00,2013-07-25 20:16:00,
2013-07-25 16:21:00,80.0,55.5,30.03,SW,232,3.0,4.3,43,0.00,,FEW038,0.00,VWS V14.00,2013-07-25 20:21:00,
2013-07-25 16:26:00,80.0,54.8,30.03,NW,310,5.9,6.4,42,0.00,,FEW038,0.00,VWS V14.00,2013-07-25 20:26:00,
2013-07-25 16:31:00,78.1,54.5,30.03,SW,230,3.4,4.8,44,0.00,,FEW038,0.00,VWS V14.00,2013-07-25 20:31:00,
2013-07-25 16:36:00,77.2,54.2,30.03,NW,312,5.9,6.4,45,0.00,,FEW038,0.00,VWS V14.00,2013-07-25 20:36:00,
2013-07-25 16:41:00,76.6,54.3,30.03,WNW,299,3.4,4.8,46,0.00,,FEW038,0.00,VWS V14.00,2013-07-25 20:41:00,
2013-07-25 16:46:00,76.6,54.9,30.03,West,280,3.0,4.3,47,0.00,,FEW038,0.00,VWS V14.00,2013-07-25 20:46:00,
2013-07-25 16:52:00,76.3,53.4,30.03,NNW,327,6.4,7.0,45,0.00,,FEW038,0.00,VWS V14.00,2013-07-25 20:52:00,
2013-07-25 16:57:00,76.1,53.2,30.03,WNW,294,5.9,7.5,45,0.00,,FEW038,0.00,VWS V14.00,2013-07-25 20:57:00,
2013-07-25 17:02:00,76.5,54.2,30.03,West,265,3.4,7.0,46,0.00,,CLR,0.00,VWS V14.00,2013-07-25 21:02:00,
2013-07-25 17:07:00,76.1,53.2,30.03,West,272,5.9,9.1,45,0.00,,CLR,0.00,VWS V14.00,2013-07-25 21:07:00,
2013-07-25 17:12:00,75.9,53.7,30.03,NW,317,3.9,7.5,46,0.00,,CLR,0.00,VWS V14.00,2013-07-25 21:12:00,
2013-07-25 17:17:00,76.1,53.8,30.03,NW,318,5.9,7.5,46,0.00,,CLR,0.00,VWS V14.00,2013-07-25 21:17:00,
2013-07-25 17:22:00,76.5,54.2,30.03,NNW,329,8.9,9.9,46,0.00,,CLR,0.00,VWS V14.00,2013-07-25 21:22:00,
2013-07-25 17:27:00,76.3,54.0,30.03,NW,312,5.9,7.5,46,0.00,,CLR,0.00,VWS V14.00,2013-07-25 21:27:00,
2013-07-25 17:32:00,76.3,53.4,30.03,NNW,341,8.9,9.7,45,0.00,,CLR,0.00,VWS V14.00,2013-07-25 21:32:00,
2013-07-25 17:37:00,76.6,54.3,30.03,NW,320,9.6,10.5,46,0.00,,CLR,0.00,VWS V14.00,2013-07-25 21:37:00,
2013-07-25 17:42:00,76.3,54.0,30.03,NNW,344,6.9,12.1,46,0.00,,CLR,0.00,VWS V14.00,2013-07-25 21:42:00,
2013-07-25 17:47:00,75.9,53.1,30.03,NNW,330,8.9,9.7,45,0.00,,CLR,0.00,VWS V14.00,2013-07-25 21:47:00,
2013-07-25 17:53:00,75.9,54.2,30.03,NNW,340,9.1,9.9,47,0.00,,CLR,0.00,VWS V14.00,2013-07-25 21:53:00,
2013-07-25 17:58:00,76.3,54.6,30.03,NNW,335,6.9,7.5,47,0.00,,CLR,0.00,VWS V14.00,2013-07-25 21:58:00,
2013-07-25 18:03:00,75.7,52.9,30.06,NNW,337,6.4,9.9,45,0.00,,SCT036,0.00,VWS V14.00,2013-07-25 22:03:00,
2013-07-25 18:08:00,75.7,52.9,30.06,NNW,342,5.9,7.0,45,0.00,,SCT036,0.00,VWS V14.00,2013-07-25 22:08:00,
2013-07-25 18:13:00,75.7,54.1,30.06,NNW,332,6.4,9.1,47,0.00,,SCT036,0.00,VWS V14.00,2013-07-25 22:13:00,
2013-07-25 18:18:00,75.3,53.2,30.06,NNW,328,8.4,9.9,46,0.00,,SCT036,0.00,VWS V14.00,2013-07-25 22:18:00,
2013-07-25 18:23:00,75.2,53.0,30.06,NNW,337,6.4,9.1,46,0.00,,SCT036,0.00,VWS V14.00,2013-07-25 22:23:00,
2013-07-25 18:28:00,75.2,53.6,30.06,WNW,301,5.9,7.0,47,0.00,,SCT036,0.00,VWS V14.00,2013-07-25 22:28:00,
2013-07-25 18:33:00,75.0,52.8,30.06,NNW,334,5.9,7.0,46,0.00,,SCT036,0.00,VWS V14.00,2013-07-25 22:33:00,
2013-07-25 18:38:00,75.0,54.0,30.06,NW,318,8.4,9.1,48,0.00,,SCT036,0.00,VWS V14.00,2013-07-25 22:38:00,
2013-07-25 18:43:00,74.6,53.1,30.06,NW,317,6.9,9.9,47,0.00,,SCT036,0.00,VWS V14.00,2013-07-25 22:43:00,
2013-07-25 18:48:00,74.8,54.4,30.06,NNW,341,5.9,9.1,49,0.00,,SCT036,0.00,VWS V14.00,2013-07-25 22:48:00,
2013-07-25 18:53:00,74.6,54.8,30.06,NW,321,5.9,9.1,50,0.00,,SCT036,0.00,VWS V14.00,2013-07-25 22:53:00,
2013-07-25 18:58:00,73.7,53.9,30.06,NNW,338,5.9,7.5,50,0.00,,SCT036,0.00,VWS V14.00,2013-07-25 22:58:00,
2013-07-25 19:03:00,72.9,54.8,30.06,NW,318,6.4,7.0,53,0.00,,FEW036,0.00,VWS V14.00,2013-07-25 23:03:00,
2013-07-25 19:09:00,72.8,54.1,30.06,NW,309,6.9,9.7,52,0.00,,FEW036,0.00,VWS V14.00,2013-07-25 23:09:00,
2013-07-25 19:14:00,73.1,53.9,30.06,NNW,338,6.9,7.5,51,0.00,,FEW036,0.00,VWS V14.00,2013-07-25 23:14:00,
2013-07-25 19:19:00,72.9,53.8,30.06,WNW,295,5.9,9.1,51,0.00,,FEW036,0.00,VWS V14.00,2013-07-25 23:19:00,
2013-07-25 19:24:00,72.8,53.6,30.06,NNW,327,5.9,7.5,51,0.00,,FEW036,0.00,VWS V14.00,2013-07-25 23:24:00,
2013-07-25 19:29:00,72.8,53.0,30.06,NNW,341,6.9,7.5,50,0.00,,FEW036,0.00,VWS V14.00,2013-07-25 23:29:00,
2013-07-25 19:34:00,72.6,52.9,30.06,NNW,342,6.4,8.1,50,0.00,,FEW036,0.00,VWS V14.00,2013-07-25 23:34:00,
2013-07-25 19:39:00,72.4,53.2,30.06,North,353,5.9,6.4,51,0.00,,FEW036,0.00,VWS V14.00,2013-07-25 23:39:00,
2013-07-25 19:44:00,72.0,53.4,30.06,NW,325,2.5,4.8,52,0.00,,FEW036,0.00,VWS V14.00,2013-07-25 23:44:00,
2013-07-25 19:49:00,72.0,55.0,30.06,NNW,331,3.0,3.2,55,0.00,,FEW036,0.00,VWS V14.00,2013-07-25 23:49:00,
2013-07-25 19:54:00,71.6,54.1,30.06,North,350,7.9,8.6,54,0.00,,FEW036,0.00,VWS V14.00,2013-07-25 23:54:00,
2013-07-25 19:59:00,71.3,53.3,30.06,North,350,3.9,7.5,53,0.00,,FEW036,0.00,VWS V14.00,2013-07-25 23:59:00,
2013-07-25 20:04:00,70.9,53.4,30.09,NNW,338,5.9,7.5,54,0.00,,CLR,0.00,VWS V14.00,2013-07-26 00:04:00,
2013-07-25 20:09:00,70.3,53.4,30.09,North,353,10.6,11.5,55,0.00,,CLR,0.00,VWS V14.00,2013-07-26 00:09:00,
2013-07-25 20:14:00,69.6,53.2,30.09,NNW,337,6.4,7.0,56,0.00,,CLR,0.00,VWS V14.00,2013-07-26 00:14:00,
2013-07-25 20:19:00,69.2,53.4,30.09,NNW,335,9.6,10.5,57,0.00,,CLR,0.00,VWS V14.00,2013-07-26 00:19:00,
2013-07-25 20:24:00,68.8,53.5,30.09,North,353,4.4,9.7,58,0.00,,CLR,0.00,VWS V14.00,2013-07-26 00:24:00,
2013-07-25 20:29:00,68.7,53.8,30.09,NNW,335,5.9,7.5,59,0.00,,CLR,0.00,VWS V14.00,2013-07-26 00:29:00,
2013-07-25 20:34:00,68.5,54.1,30.09,North,350,3.9,6.4,60,0.00,,CLR,0.00,VWS V14.00,2013-07-26 00:34:00,
2013-07-25 20:39:00,68.3,53.9,30.09,North,353,4.4,7.5,60,0.00,,CLR,0.00,VWS V14.00,2013-07-26 00:39:00,
2013-07-25 20:45:00,67.9,53.5,30.09,North,353,8.9,12.1,60,0.00,,CLR,0.00,VWS V14.00,2013-07-26 00:45:00,
2013-07-25 20:50:00,67.7,53.8,30.09,NNW,335,5.9,9.1,61,0.00,,CLR,0.00,VWS V14.00,2013-07-26 00:50:00,
2013-07-25 20:55:00,67.6,53.2,30.09,NW,324,6.4,7.5,60,0.00,,CLR,0.00,VWS V14.00,2013-07-26 00:55:00,
2013-07-25 21:00:00,67.4,53.5,30.09,NNW,342,4.4,6.4,61,0.00,,CLR,0.00,VWS V14.00,2013-07-26 01:00:00,
2013-07-25 21:05:00,67.2,53.7,30.09,NNW,334,3.4,4.8,62,0.00,,CLR,0.00,VWS V14.00,2013-07-26 01:05:00,
2013-07-25 21:10:00,67.2,53.7,30.09,NNW,329,3.4,3.8,62,0.00,,CLR,0.00,VWS V14.00,2013-07-26 01:10:00,
2013-07-25 21:15:00,67.2,53.7,30.09,NE,52,3.0,3.8,62,0.00,,CLR,0.00,VWS V14.00,2013-07-26 01:15:00,
2013-07-25 21:20:00,67.0,54.0,30.09,East,88,2.5,2.7,63,0.00,,CLR,0.00,VWS V14.00,2013-07-26 01:20:00,
2013-07-25 21:25:00,67.0,54.0,30.09,East,88,2.5,2.7,63,0.00,,CLR,0.00,VWS V14.00,2013-07-26 01:25:00,
2013-07-25 21:30:00,67.0,54.0,30.09,East,88,0.0,0.0,63,0.00,,CLR,0.00,VWS V14.00,2013-07-26 01:30:00,
2013-07-25 21:35:00,67.0,54.0,30.09,East,88,0.0,0.0,63,0.00,,CLR,0.00,VWS V14.00,2013-07-26 01:35:00,
2013-07-25 21:40:00,66.8,53.8,30.09,East,89,0.0,0.0,63,0.00,,CLR,0.00,VWS V14.00,2013-07-26 01:40:00,
2013-07-25 21:46:00,66.6,53.7,30.12,East,88,0.0,0.0,63,0.00,,CLR,0.00,VWS V14.00,2013-07-26 01:46:00,
2013-07-25 21:51:00,66.6,53.2,30.12,East,88,0.0,0.0,62,0.00,,CLR,0.00,VWS V14.00,2013-07-26 01:51:00,
2013-07-25 21:56:00,66.6,53.7,30.12,East,89,0.0,0.0,63,0.00,,CLR,0.00,VWS V14.00,2013-07-26 01:56:00,
2013-07-25 22:01:00,66.4,53.5,30.12,East,88,0.0,0.0,63,0.00,,CLR,0.00,VWS V14.00,2013-07-26 02:01:00,
2013-07-25 22:06:00,66.3,53.7,30.12,East,88,0.0,0.0,64,0.00,,CLR,0.00,VWS V14.00,2013-07-26 02:06:00,
2013-07-25 22:11:00,66.1,53.6,30.12,East,88,2.5,2.7,64,0.00,,CLR,0.00,VWS V14.00,2013-07-26 02:11:00,
2013-07-25 22:16:00,66.1,54.0,30.12,East,88,0.0,0.0,65,0.00,,CLR,0.00,VWS V14.00,2013-07-26 02:16:00,
2013-07-25 22:21:00,66.1,53.6,30.12,East,88,0.0,0.0,64,0.00,,CLR,0.00,VWS V14.00,2013-07-26 02:21:00,
2013-07-25 22:26:00,65.9,53.8,30.12,East,88,2.5,2.7,65,0.00,,CLR,0.00,VWS V14.00,2013-07-26 02:26:00,
2013-07-25 22:31:00,65.5,53.9,30.12,East,88,0.0,3.2,66,0.00,,CLR,0.00,VWS V14.00,2013-07-26 02:31:00,
2013-07-25 22:36:00,65.3,54.1,30.12,East,88,2.5,2.7,67,0.00,,CLR,0.00,VWS V14.00,2013-07-26 02:36:00,
2013-07-25 22:41:00,65.2,54.3,30.12,East,89,0.0,0.0,68,0.00,,CLR,0.00,VWS V14.00,2013-07-26 02:41:00,
2013-07-25 22:48:00,65.2,54.3,30.12,East,89,0.0,2.7,68,0.00,,CLR,0.00,VWS V14.00,2013-07-26 02:48:00,
2013-07-25 22:53:00,65.0,54.2,30.12,East,88,0.0,0.0,68,0.00,,CLR,0.00,VWS V14.00,2013-07-26 02:53:00,
2013-07-25 22:58:00,64.6,54.2,30.12,East,88,0.0,0.0,69,0.00,,CLR,0.00,VWS V14.00,2013-07-26 02:58:00,
2013-07-25 23:03:00,63.5,53.5,30.12,East,88,0.0,0.0,70,0.00,,CLR,0.00,VWS V14.00,2013-07-26 03:03:00,
2013-07-25 23:08:00,63.7,54.5,30.12,East,88,0.0,0.0,72,0.00,,CLR,0.00,VWS V14.00,2013-07-26 03:08:00,
2013-07-25 23:13:00,63.8,54.3,30.12,East,88,3.0,3.2,71,0.00,,CLR,0.00,VWS V14.00,2013-07-26 03:13:00,
2013-07-25 23:18:00,62.9,54.1,30.12,East,88,0.0,0.0,73,0.00,,CLR,0.00,VWS V14.00,2013-07-26 03:18:00,
2013-07-25 23:23:00,63.5,54.3,30.12,East,88,0.0,0.0,72,0.00,,CLR,0.00,VWS V14.00,2013-07-26 03:23:00,
2013-07-25 23:28:00,63.5,54.3,30.12,ENE,64,3.0,3.2,72,0.00,,CLR,0.00,VWS V14.00,2013-07-26 03:28:00,
2013-07-25 23:33:00,63.3,54.1,30.12,ENE,64,0.0,0.0,72,0.00,,CLR,0.00,VWS V14.00,2013-07-26 03:33:00,
2013-07-25 23:38:00,62.9,53.8,30.12,East,96,0.0,0.0,72,0.00,,CLR,0.00,VWS V14.00,2013-07-26 03:38:00,
2013-07-25 23:43:00,63.1,54.0,30.12,East,96,2.5,2.7,72,0.00,,CLR,0.00,VWS V14.00,2013-07-26 03:43:00,
2013-07-25 23:48:00,63.1,54.0,30.12,East,96,0.0,0.0,72,0.00,,CLR,0.00,VWS V14.00,2013-07-26 03:48:00,
2013-07-25 23:53:00,63.1,54.3,30.12,East,96,2.5,2.7,73,0.00,,CLR,0.00,VWS V14.00,2013-07-26 03:53:00,
2013-07-25 23:58:00,62.9,54.1,30.12,East,96,0.0,0.0,73,0.00,,CLR,0.00,VWS V14.00,2013-07-26 03:58:00,